Tracking 19827 objects as of 22-Aug-2019
HD Live streaming from Space Station
objects crossing your sky now

GSTAR 4

Track GSTAR 4 now!
GSTAR 4 is classified as:


NORAD ID: 20946
Int'l Code: 1990-100B
Perigee: 36,078.1 km
Apogee: 36,146.0 km
Inclination: 12.5 °
Period: 1,452.4 minutes
Semi major axis: 42483 km
RCS: 8.7599 m2 (large)
Launch date: November 20, 1990
Source: United States (US)
Launch site: FRENCH GUIANA (FRGUI)
aabbcc
Your satellite tracking list
Your tracking list is empty




NASA's NSSDC Master Catalog

Two Line Element Set (TLE):
1 20946U 90100B   19233.73721375 -.00000261 +00000-0 +00000-0 0  9994
2 20946 012.5356 028.1439 0007991 310.9607 059.5265 00.99147049022115
Source of the keplerian elements: AFSPC